Location: Dodge City Co - Operative Exchange Grain Elevator Number 8
(38.1218°N, 99.7124°W)
Time: 03:04:57
(UTC+00:00)

Cosmos 2333 - Pass Details

Date: 03 March 2021
Orbit: 829 x 866 km, 70.9° (Epoch: 14 April)

Event Time Altitude Azimuth Distance (km) Brightness Sun altitude
Rises 12:08:15 0° 337° (NNW) 3,447 7.2 -12.4°
Reaches altitude 10° 12:10:42 10° 337° (NNW) 2,510 6.4 -11.9°
Maximum altitude 12:16:30 88° 251° (WSW) 872 4.3 -10.8°
Drops below altitude 10° 12:22:17 10° 160° (SSE) 2,499 6.9 -9.7°
Sets 12:24:43 0° 160° (SSE) 3,431 7.7 -9.2°
